Location: Spruce Knob
(38.6995°N, 79.5330°W)
Time: 09:24:41
(UTC-04:00)

BUGSAT 1 - Visible Passes

Search period start: 21 March 2023 00:00
Search period end: 31 March 2023 00:00
Orbit: 550 x 592 km, 98.1° (Epoch: 21 March)

Date Brightness Start Highest point End Pass type
(mag) Time Alt. Az. Time Alt. Az. Time Alt. Az.
22 Mar ? 19:51:14 10° SSW 19:55:00 33° W 19:58:46 10° NNW visible
23 Mar ? 19:53:27 10° SSW 19:57:10 31° W 20:00:53 10° NW visible
24 Mar ? 19:55:40 10° SSW 19:59:20 30° W 20:02:59 10° NW visible
25 Mar ? 19:57:52 10° SSW 20:01:28 28° W 20:05:05 10° NW visible
26 Mar ? 20:00:04 10° SSW 20:03:36 27° W 20:07:09 10° NW visible
27 Mar ? 20:02:15 10° SSW 20:05:44 26° W 20:09:12 10° NW visible
28 Mar ? 20:04:26 10° SSW 20:07:51 24° W 20:11:14 10° NW visible
29 Mar ? 20:06:36 10° SSW 20:09:56 23° W 20:13:16 10° NW visible
30 Mar ? 20:08:47 10° SSW 20:12:02 22° W 20:15:16 10° NW visible
